Location: Unspecified
(0.0000°N, 0.0000°E)
Time: 02:02:17
(UTC+02:00)

NOSS 3-3 (A) - Visible Passes

Search period start: 27 June 2017 00:00
Search period end: 07 July 2017 00:00
Orbit: 909 x 1304 km, 63.4° (Epoch: 21 June)

Date Brightness Start Highest point End Pass type
(mag) Time Alt. Az. Time Alt. Az. Time Alt. Az.
27 Jun 6.2 05:20:17 10° N 05:27:03 30° ENE 05:33:49 10° SE visible
27 Jun 5.0 07:10:28 10° NW 07:17:50 39° WSW 07:25:11 10° S visible
28 Jun 6.9 04:37:45 10° NNE 04:42:17 16° ENE 04:46:50 10° E visible
28 Jun 4.5 06:25:08 10° NNW 06:33:09 68° WSW 06:41:09 10° SSE visible
29 Jun 4.7 05:40:26 10° NNW 05:48:28 73° ENE 05:56:31 10° SSE visible
29 Jun 5.9 07:35:17 10° W 07:39:21 15° WSW 07:43:25 10° SW visible
30 Jun 5.5 04:56:19 10° N 05:03:46 42° ENE 05:11:16 10° SE visible
30 Jun 5.3 06:48:00 10° WNW 06:54:35 28° WSW 07:01:08 10° SSW visible
01 Jul 6.3 04:12:57 10° NNE 04:19:03 24° ENE 04:25:10 10° ESE visible
01 Jul 4.9 06:02:10 10° NW 06:11:51 41° SSW 06:17:33 10° S visible
02 Jul 7.1 03:31:31 10° NE 03:31:38 10° NE 03:31:38 10° NE visible
02 Jul 6.3 05:17:06 10° NNW 05:33:42 - SSE 05:18:49 18° NNW visible
03 Jul 6.8 04:32:36 10° N 04:32:59 12° N 04:32:59 12° N visible
